{"data":{"norad_id":63388,"intl_designator":"2025-063AB","name":"STARLINK-33629","alt_names":[],"object_type":"PAYLOAD","status":"ACTIVE","operator":null,"country":"US","launch_date":"2025-03-26","launch_site_code":"AFWTR","launch_vehicle":null,"mission":null,"orbit_class":"UNKNOWN","rcs_meters":null,"size_class":null,"mass_kg":null,"dimensions":null,"purposes":["comms"],"wikipedia_slug":null,"has_3d_model":false,"image_url":null,"decayed_at":null,"tle_current":{"epoch":"2026-05-25T01:04:19.781760Z","epoch_age_seconds":75199,"freshness":"FRESH","line1":"1 63388U 25063AB  26145.04467340 -.00000148  00000+0  71338-5 0  9990","line2":"2 63388  53.1576  55.3879 0000995  72.7813 287.3297 15.30196765 66480","mean_motion":15.30196765,"eccentricity":9.95e-5,"inclination_deg":53.1576,"raan_deg":55.3879,"arg_perigee_deg":72.7813,"mean_anomaly_deg":287.3297,"bstar":7.1338e-6,"rev_number":6648,"period_min":94.105544655233,"perigee_km":474.54281907124,"apogee_km":475.90663805522,"semimajor_km":6853.3617285632,"source":"CELESTRAK","updated_at":"2026-05-25T13:38:19.967017Z"}}}